ROT225 LROP-LKPR

Flight info

Callsign ROT225
Flight time N/A
Altitude 38000
Route SOKRU DCT PATAK DCT LALES DCT TUMKA DCT VLM
Aircraft B738/M-SDE2E3FGHIRWXY/LB1

Departure

Time 2026-05-04 18:46
Airport Bucharest Henri Coandă International Airport (LROP)

Arrival

Time N/A
Airport Václav Havel Airport Prague (LKPR)
Time Latitude Longitude Altitude Speed Heading
2026-05-04 18:09 44.57116 26.07884 322 ft 0 kts 174°
2026-05-04 18:33 44.57129 26.07883 322 ft 2 kts 174°
2026-05-04 18:33 44.57145 26.07880 319 ft 2 kts 174°
2026-05-04 18:33 44.57162 26.07878 320 ft 2 kts 174°
2026-05-04 18:33 44.57178 26.07875 319 ft 2 kts 174°
2026-05-04 18:34 44.57191 26.07873 321 ft 0 kts 174°
2026-05-04 18:34 44.57190 26.07869 322 ft 0 kts 173°
2026-05-04 18:34 44.57188 26.07879 320 ft 0 kts 82°
2026-05-04 18:39 44.57188 26.07882 322 ft 1 kts 82°
2026-05-04 18:40 44.57190 26.07903 322 ft 3 kts 84°
2026-05-04 18:40 44.57192 26.07930 322 ft 3 kts 84°
2026-05-04 18:40 44.57194 26.07956 320 ft 3 kts 84°
2026-05-04 18:40 44.57196 26.07981 320 ft 3 kts 84°
2026-05-04 18:41 44.57198 26.08005 322 ft 2 kts 84°
2026-05-04 18:41 44.57199 26.08029 322 ft 3 kts 85°
2026-05-04 18:41 44.57202 26.08067 322 ft 5 kts 85°
2026-05-04 18:41 44.57207 26.08140 322 ft 10 kts 84°
2026-05-04 18:42 44.57215 26.08251 322 ft 13 kts 84°
2026-05-04 18:42 44.57226 26.08397 322 ft 17 kts 83°
2026-05-04 18:42 44.57241 26.08480 320 ft 2 kts 50°
2026-05-04 18:42 44.57267 26.08494 322 ft 6 kts
2026-05-04 18:43 44.57323 26.08492 322 ft 9 kts 353°
2026-05-04 18:43 44.57390 26.08482 322 ft 10 kts 354°
2026-05-04 18:43 44.57459 26.08472 322 ft 10 kts 355°
2026-05-04 18:43 44.57528 26.08461 320 ft 10 kts 353°
2026-05-04 18:44 44.57598 26.08452 320 ft 10 kts 358°
2026-05-04 18:44 44.57622 26.08456 322 ft 10 kts 17°
2026-05-04 18:44 44.57667 26.08530 323 ft 0 kts 83°
2026-05-04 18:45 44.57675 26.08614 322 ft 19 kts 83°
2026-05-04 18:45 44.57708 26.09043 321 ft 85 kts 84°
2026-05-04 18:45 44.57787 26.10247 322 ft 160 kts 88°
2026-05-04 18:46 44.57947 26.11980 911 ft 177 kts 82°
2026-05-04 18:46 44.58113 26.13542 2332 ft 154 kts 83°
2026-05-04 18:46 44.58213 26.15022 3178 ft 161 kts 83°
2026-05-04 18:46 44.58337 26.16772 3554 ft 199 kts 82°
2026-05-04 18:47 44.58494 26.18841 3894 ft 224 kts 82°
2026-05-04 18:47 44.58866 26.21001 4397 ft 234 kts 59°
2026-05-04 18:47 44.60026 26.22570 5097 ft 234 kts 27°
2026-05-04 18:47 44.61584 26.23071 5933 ft 230 kts 359°
2026-05-04 18:48 44.63113 26.22463 6717 ft 233 kts 335°
2026-05-04 18:48 44.64337 26.20891 7252 ft 247 kts 312°
2026-05-04 18:48 44.65305 26.18791 7542 ft 267 kts 306°
2026-05-04 18:48 44.66246 26.16458 8025 ft 280 kts 304°
2026-05-04 18:49 44.67239 26.14098 8857 ft 279 kts 310°
2026-05-04 18:49 44.68388 26.11906 9739 ft 279 kts 314°
2026-05-04 18:49 44.69602 26.09739 10392 ft 288 kts 315°
2026-05-04 18:49 44.70909 26.07442 10585 ft 313 kts 314°
2026-05-04 18:50 44.72307 26.04970 10982 ft 329 kts 314°
2026-05-04 18:50 44.73733 26.02414 11642 ft 336 kts 313°
2026-05-04 18:50 44.75175 25.99803 12387 ft 340 kts 313°
2026-05-04 18:50 44.76631 25.97149 13142 ft 345 kts 313°
2026-05-04 18:51 44.78106 25.94450 13899 ft 350 kts 312°
2026-05-04 18:51 44.79598 25.91710 14603 ft 355 kts 312°
2026-05-04 18:51 44.81107 25.88934 15352 ft 359 kts 312°
2026-05-04 18:51 44.82630 25.86126 16101 ft 363 kts 312°
2026-05-04 18:52 44.84169 25.83286 16820 ft 367 kts 311°
2026-05-04 18:52 44.85727 25.80409 17544 ft 372 kts 311°
2026-05-04 18:52 44.87307 25.77487 18244 ft 377 kts 311°
2026-05-04 18:52 44.88363 25.75532 18659 ft 379 kts 311°
2026-05-04 18:53 44.89964 25.72564 19373 ft 380 kts 310°
2026-05-04 18:53 44.91560 25.69601 20133 ft 380 kts 310°
2026-05-04 18:53 44.93159 25.66630 20851 ft 380 kts 310°
2026-05-04 18:53 44.94761 25.63650 21517 ft 382 kts 309°
2026-05-04 18:54 44.96370 25.60655 22196 ft 384 kts 309°
2026-05-04 18:54 44.97991 25.57638 22859 ft 386 kts 309°
2026-05-04 18:54 44.99614 25.54610 23516 ft 387 kts 308°
2026-05-04 18:54 45.01247 25.51563 24049 ft 390 kts 308°
2026-05-04 18:55 45.02889 25.48495 24514 ft 393 kts 308°
2026-05-04 18:55 45.06216 25.42269 25438 ft 399 kts 307°
2026-05-04 18:55 45.07896 25.39121 25895 ft 402 kts 307°
2026-05-04 18:56 45.09586 25.35950 26356 ft 405 kts 307°
2026-05-04 18:56 45.11285 25.32758 26803 ft 407 kts 307°
2026-05-04 18:56 45.12993 25.29545 27249 ft 410 kts 306°
2026-05-04 18:56 45.14669 25.26389 27667 ft 412 kts 306°
2026-05-04 18:57 45.16396 25.23133 28108 ft 415 kts 306°
2026-05-04 18:57 45.18111 25.19897 28519 ft 417 kts 306°
2026-05-04 18:57 45.19857 25.16599 28924 ft 419 kts 305°
2026-05-04 18:57 45.21609 25.13284 29345 ft 421 kts 305°
2026-05-04 18:58 45.23369 25.09952 29743 ft 423 kts 305°
2026-05-04 18:58 45.25138 25.06597 30110 ft 426 kts 304°
2026-05-04 18:58 45.26919 25.03218 30426 ft 428 kts 305°
2026-05-04 18:58 45.28703 24.99827 30718 ft 430 kts 305°
2026-05-04 18:59 45.30500 24.96410 30999 ft 432 kts 305°
2026-05-04 18:59 45.32303 24.92977 31285 ft 435 kts 305°
2026-05-04 18:59 45.34118 24.89515 31555 ft 437 kts 306°
2026-05-04 18:59 45.35933 24.86050 31911 ft 437 kts 306°
2026-05-04 19:00 45.37745 24.82588 32327 ft 436 kts 306°
2026-05-04 19:00 45.39549 24.79135 32702 ft 435 kts 306°
2026-05-04 19:00 45.41355 24.75674 33026 ft 436 kts 307°
2026-05-04 19:00 45.43163 24.72205 33345 ft 436 kts 307°
2026-05-04 19:01 45.44993 24.68690 33724 ft 435 kts 307°
2026-05-04 19:01 45.46793 24.65228 34096 ft 434 kts 307°
2026-05-04 19:01 45.48567 24.61812 34379 ft 434 kts 308°
2026-05-04 19:01 45.50386 24.58303 34644 ft 435 kts 308°
2026-05-04 19:02 45.52182 24.54835 34928 ft 434 kts 308°
2026-05-04 19:02 45.53952 24.51414 35220 ft 434 kts 308°
2026-05-04 19:02 45.55741 24.47953 35515 ft 433 kts 308°
2026-05-04 19:02 45.57525 24.44495 35785 ft 433 kts 308°
2026-05-04 19:03 45.59336 24.40983 36046 ft 433 kts 308°
2026-05-04 19:03 45.61119 24.37519 36313 ft 433 kts 308°
2026-05-04 19:03 45.62900 24.34056 36605 ft 432 kts 308°
2026-05-04 19:03 45.64678 24.30594 36890 ft 432 kts 308°
2026-05-04 19:04 45.66453 24.27133 37143 ft 432 kts 308°
2026-05-04 19:04 45.68203 24.23717 37394 ft 431 kts 307°
2026-05-04 19:04 45.69974 24.20257 37662 ft 431 kts 307°
2026-05-04 19:04 45.71741 24.16800 37937 ft 430 kts 307°
2026-05-04 19:05 45.73507 24.13340 38078 ft 432 kts 307°
2026-05-04 19:05 45.75287 24.09849 38068 ft 435 kts 307°
2026-05-04 19:05 45.78848 24.02853 38064 ft 433 kts 307°
2026-05-04 19:06 45.82368 23.95917 38070 ft 427 kts 307°
2026-05-04 19:06 45.85857 23.89026 38087 ft 427 kts 307°
2026-05-04 19:07 45.89340 23.82132 38081 ft 426 kts 307°
2026-05-04 19:07 45.92816 23.75234 38089 ft 427 kts 307°
2026-05-04 19:08 45.96296 23.68311 38091 ft 428 kts 307°
2026-05-04 19:08 45.99780 23.61365 38094 ft 429 kts 307°
2026-05-04 19:09 46.03272 23.54385 38091 ft 430 kts 307°
2026-05-04 19:09 46.06769 23.47377 38092 ft 431 kts 307°
2026-05-04 19:10 46.10270 23.40342 38099 ft 433 kts 307°
2026-05-04 19:10 46.13775 23.33283 38097 ft 433 kts 307°
2026-05-04 19:11 46.17279 23.26208 38104 ft 434 kts 307°
2026-05-04 19:11 46.20780 23.19119 38104 ft 433 kts 307°
2026-05-04 19:12 46.26020 23.08478 38107 ft 433 kts 307°
2026-05-04 19:13 46.29506 23.01378 38108 ft 432 kts 307°
2026-05-04 19:13 46.32975 22.94291 38109 ft 431 kts 307°
2026-05-04 19:14 46.36411 22.87256 38117 ft 431 kts 307°
2026-05-04 19:14 46.39866 22.80165 38109 ft 430 kts 307°
2026-05-04 19:15 46.43304 22.73089 38119 ft 429 kts 307°
2026-05-04 19:15 46.46738 22.66006 38110 ft 429 kts 306°
2026-05-04 19:16 46.50187 22.58872 38107 ft 428 kts 306°
2026-05-04 19:16 46.53579 22.51839 38110 ft 428 kts 306°
2026-05-04 19:17 46.57012 22.44701 38103 ft 428 kts 306°
2026-05-04 19:17 46.60420 22.37600 38101 ft 428 kts 306°
2026-05-04 19:18 46.63823 22.30489 38096 ft 429 kts 306°
2026-05-04 19:18 46.67228 22.23356 38091 ft 429 kts 306°
2026-05-04 19:19 46.70031 22.17438 38071 ft 422 kts 306°
2026-05-04 19:19 46.71495 22.14413 37947 ft 419 kts 307°
2026-05-04 19:19 46.73166 22.10977 38022 ft 411 kts 306°
2026-05-04 19:19 46.75013 22.07867 38053 ft 402 kts 322°
2026-05-04 19:20 46.77370 22.05785 38071 ft 394 kts 340°